Hourly Data Report for September 28, 2017

All times are specified in Local Standard Time (LST). Add 1 hour to adjust for Daylight Saving Time where and when it is observed.

EUREKA CLIMATE
NUNAVUT

79°59'21.000" N
85°56'02.000" W
10.00 m
2401199
71613
NEK

Download Data

Hourly Data (September 2017)
Hourly Data Report for September 28, 2017
Temp Definition
°C
Dew Point Temp Definition
°C
Rel Hum Definition
%
Wind Dir Definition
10's deg

Wind Spd Definition
km/h
Visibility Definition
km
Stn Press Definition
kPa
Hmdx Definition


Wind Chill Definition


Weather Definition


TIME
00:00 -9.5 -10.6 92 29 22   100.31   -18 LegendNANA
01:00 -9.1 -10.4 90 29 22   100.28   -17 LegendNANA
02:00 -9.2 -10.5 90 28 21   100.25   -17 LegendNANA
03:00 -8.3 -10.1 87 28 20   100.24   -16 LegendNANA
04:00 -8.7 -10.1 90 28 23   100.20   -17 LegendNANA
05:00 -8.9 -10.2 90 28 22   100.17   -17 LegendNANA
06:00 -8.8 -10.1 90 29 14   100.16   -15 LegendNANA
07:00 -10.0 -11.7 87 30 12   100.15   -16 LegendNANA
08:00 -7.5 -9.6 85 29 22   100.12   -15 LegendNANA
09:00 -6.7 -9.0 84 27 22   100.14   -14 LegendNANA
10:00 -6.3 -9.1 80 27 15   100.16   -12 LegendNANA
11:00 -11.2 -12.8 87 11 9   100.21   -16 LegendNANA
12:00 -12.1 -14.0 85 11 17   100.25   -20 LegendNANA
13:00 -12.8 -14.5 88 11 14   100.32   -20 LegendNANA
14:00 -11.9 -13.7 87 9 19   100.39   -20 LegendNANA
15:00 -12.6 -14.3 87 10 6   100.46   -17 LegendNANA
16:00 -13.8 -15.2 89 7 4   100.53   -17 LegendNANA
17:00 -13.8 -15.1 90 7 13   100.60   -21 LegendNANA
18:00 -14.1 -15.4 90 12 4   100.65   -17 LegendNANA
19:00 -14.2 -15.6 89 11 13   100.72   -21 LegendNANA
20:00 -14.1 -15.3 91 10 10   100.77   -20 LegendNANA
21:00 -13.8 -15.1 90 11 8   100.82   -19 LegendNANA
22:00 -14.8 -16.0 91 11 6   100.88   -19 LegendNANA
23:00 -14.9 -16.1 91 3 5   100.94   -18 LegendNANA

Notes on Data Quality.

Legend

  • E = Estimated
  • M = Missing
  • NA = Not Available
  • ‡ = Partner data that is not subject to review by the National Climate Archives
Date modified: